N6OL Weather Reports


Display with metric or nautical units.
time (UTC)temp
F
wind
direction
speed
MPH
gust
MPH
rain 1hr
in
rain 24hr
in
rain mn
in
humidity
%
barometer
mb
20260503202503 64 224 10.0 18.0 0.00 0.00 0.00 63 1012.6
20260503202024 63 227 10.0 18.0 0.00 0.00 0.00 62 1012.5
20260503201503 63 239 9.0 18.0 0.00 0.00 0.00 63 1012.7
20260503201003 63 250 10.0 18.0 0.00 0.00 0.00 62 1012.7
20260503200503 63 250 10.0 18.0 0.00 0.00 0.00 62 1012.5
20260503200003 64 249 9.0 18.0 0.00 0.00 0.00 60 1012.6
20260503195503 64 267 8.0 15.0 0.00 0.00 0.00 61 1012.7
20260503195003 64 245 8.0 14.0 0.00 0.00 0.00 61 1012.7
20260503194525 64 235 9.0 14.0 0.00 0.00 0.00 60 1012.7
20260503194003 64 236 9.0 16.0 0.00 0.00 0.00 59 1012.7
20260503193503 64 236 9.0 16.0 0.00 0.00 0.00 61 1012.8
20260503193003 64 244 10.0 15.0 0.00 0.00 0.00 61 1012.8
20260503192504 64 243 10.0 17.0 0.00 0.00 0.00 62 1012.7
20260503192003 64 235 8.0 17.0 0.00 0.00 0.00 62 1012.6
20260503191503 63 239 7.0 12.0 0.00 0.00 0.00 62 1012.8
20260503191003 63 251 8.0 13.0 0.00 0.00 0.00 63 1012.8
20260503190503 63 250 8.0 13.0 0.00 0.00 0.00 62 1012.7
20260503190003 63 244 8.0 16.0 0.00 0.00 0.00 63 1012.7
20260503185503 63 247 8.0 16.0 0.00 0.00 0.00 63 1012.8
20260503185003 63 240 8.0 14.0 0.00 0.00 0.00 63 1012.8
20260503184503 63 218 8.0 15.0 0.00 0.00 0.00 65 1012.9
20260503184003 63 223 7.0 15.0 0.00 0.00 0.00 65 1012.8
20260503183503 62 224 7.0 14.0 0.00 0.00 0.00 64 1012.8
20260503183003 62 231 8.0 15.0 0.00 0.00 0.00 66 1012.8
20260503182503 62 235 8.0 15.0 0.00 0.00 0.00 67 1012.8
20260503182024 63 221 7.0 14.0 0.00 0.00 0.00 67 1012.7
20260503181504 62 232 6.0 12.0 0.00 0.00 0.00 68 1012.7
20260503181004 62 250 6.0 11.0 0.00 0.00 0.00 68 1012.7
20260503180503 61 255 5.0 9.0 0.00 0.00 0.00 71 1012.7
20260503180004 61 248 6.0 11.0 0.00 0.00 0.00 71 1012.7
20260503175503 60 236 8.0 14.0 0.00 0.00 0.00 70 1012.7
20260503175003 60 232 7.0 14.0 0.00 0.00 0.00 71 1012.8
20260503174503 60 245 6.0 12.0 0.00 0.00 0.00 74 1012.7
20260503174003 59 253 7.0 12.0 0.00 0.00 0.00 75 1012.7
20260503173503 59 253 7.0 12.0 0.00 0.00 0.00 75 1012.7
20260503173003 58 250 7.0 12.0 0.00 0.00 0.00 77 1012.6
20260503172504 58 242 7.0 12.0 0.00 0.00 0.00 77 1012.7
20260503172024 58 241 6.0 11.0 0.00 0.00 0.00 79 1012.7
20260503171524 57 250 5.0 10.0 0.00 0.00 0.00 80 1012.7
20260503171003 57 232 5.0 9.0 0.00 0.00 0.00 81 1012.7
20260503170503 57 223 5.0 11.0 0.00 0.00 0.00 82 1012.8
20260503151003 55 251 1.0 5.0 0.00 0.00 0.00 86 1012.3
20260503150503 55 237 1.0 5.0 0.00 0.00 0.00 86 1012.3
20260503131003 55 251 1.0 4.0 0.00 0.00 0.00 81 1011.0
20260503130503 55 249 1.0 4.0 0.00 0.00 0.00 81 1010.8
20260503110503 55 296 0.0 2.0 0.00 0.00 0.00 82 1011.0
20260503090503 55 291 3.0 6.0 0.00 0.00 0.00 81 1011.2
20260503081503 55 290 3.0 6.0 0.00 0.00 0.00 81 1011.6
20260503081003 55 285 2.0 6.0 0.00 0.00 0.00 81 1011.8
20260503080503 55 280 2.0 5.0 0.00 0.00 0.00 81 1011.9
20260503072524 55 0 0.0 0.0 0.00 0.00 0.00 81 1011.8
20260503072003 55 0 0.0 0.0 0.00 0.00 0.00 81 1011.8
20260503071524 55 0 0.0 0.0 0.00 0.00 0.00 81 1011.8
20260503071003 55 240 0.0 2.0 0.00 0.00 0.00 81 1011.9
20260503070503 55 237 1.0 3.0 0.00 0.00 0.00 81 1011.9
20260503055003 55 296 3.0 8.0 0.00 0.00 0.00 81 1012.2
20260503054503 55 293 3.0 6.0 0.00 0.00 0.00 81 1012.1
20260503054003 55 289 3.0 7.0 0.00 0.00 0.00 81 1012.1
20260503053503 55 296 3.0 8.0 0.00 0.00 0.00 81 1012.2
20260503053024 55 304 3.0 8.0 0.00 0.00 0.00 80 1012.3
20260503052503 55 297 4.0 8.0 0.00 0.00 0.00 80 1012.4
20260503052003 55 303 4.0 8.0 0.00 0.00 0.00 80 1012.3
20260503051524 55 302 4.0 7.0 0.00 0.00 0.00 80 1012.3
20260503051003 55 296 4.0 9.0 0.00 0.00 0.00 80 1012.3
20260503050503 55 286 5.0 13.0 0.00 0.00 0.00 80 1012.3
20260503050003 55 287 6.0 13.0 0.00 0.00 0.00 80 1012.2
20260503045503 55 294 6.0 9.0 0.00 0.00 0.00 80 1012.3
20260503045003 55 293 4.0 9.0 0.00 0.00 0.00 80 1012.2
20260503044503 55 286 5.0 11.0 0.00 0.00 0.00 80 1012.3
20260503044003 55 282 5.0 11.0 0.00 0.00 0.00 80 1012.3
20260503043503 55 279 3.0 8.0 0.00 0.00 0.00 80 1012.2
20260503043024 55 283 3.0 7.0 0.00 0.00 0.00 80 1012.3
20260503042503 55 286 3.0 7.0 0.00 0.00 0.00 80 1012.2
20260503042003 55 285 3.0 7.0 0.00 0.00 0.00 80 1012.1
20260503041524 55 286 3.0 9.0 0.00 0.00 0.00 80 1012.2
20260503041003 56 285 4.0 9.0 0.00 0.00 0.00 80 1012.1
20260503040503 56 281 4.0 9.0 0.00 0.00 0.00 80 1012.0
20260503040003 56 287 4.0 9.0 0.00 0.00 0.00 80 1012.1
20260503035503 56 285 5.0 11.0 0.00 0.00 0.00 80 1012.0
20260503035024 56 275 4.0 11.0 0.00 0.00 0.00 80 1012.1
20260503034503 56 273 4.0 7.0 0.00 0.00 0.00 80 1012.1
20260503034003 56 276 4.0 7.0 0.00 0.00 0.00 79 1012.0
20260503033503 56 280 4.0 10.0 0.00 0.00 0.00 79 1012.0
20260503033003 56 278 4.0 10.0 0.00 0.00 0.00 79 1012.0
20260503032524 56 269 4.0 8.0 0.00 0.00 0.00 79 1011.8
20260503032024 56 275 4.0 9.0 0.00 0.00 0.00 79 1011.8
20260503031503 56 275 4.0 9.0 0.00 0.00 0.00 79 1011.6
20260503031003 56 279 5.0 9.0 0.00 0.00 0.00 79 1011.6
20260503030503 56 278 5.0 12.0 0.00 0.00 0.00 78 1011.5
20260503030003 56 271 6.0 12.0 0.00 0.00 0.00 78 1011.4
20260503025503 56 274 6.0 13.0 0.00 0.00 0.00 78 1011.3
20260503025024 56 281 6.0 13.0 0.00 0.00 0.00 78 1011.3
20260503024503 56 275 7.0 13.0 0.00 0.00 0.00 77 1011.2
20260503024003 56 270 6.0 13.0 0.00 0.00 0.00 77 1011.2
20260503023503 56 268 6.0 12.0 0.00 0.00 0.00 77 1011.2
20260503023003 56 268 6.0 12.0 0.00 0.00 0.00 77 1011.1
20260503022503 56 265 6.0 14.0 0.00 0.00 0.00 76 1011.1
20260503022024 56 265 7.0 14.0 0.00 0.00 0.00 76 1011.0
20260503021503 57 268 7.0 14.0 0.00 0.00 0.00 76 1011.2
20260503021003 57 268 7.0 14.0 0.00 0.00 0.00 76 1011.2
20260503020503 57 268 7.0 12.0 0.00 0.00 0.00 76 1011.3
20260503020003 57 268 7.0 13.0 0.00 0.00 0.00 76 1011.3
20260503015503 57 271 6.0 16.0 0.00 0.00 0.00 75 1011.4
20260503015003 57 266 7.0 16.0 0.00 0.00 0.00 75 1011.4
20260503014503 57 264 9.0 16.0 0.00 0.00 0.00 75 1011.4
20260503014003 57 263 10.0 16.0 0.00 0.00 0.00 74 1011.4
20260503013503 58 266 9.0 16.0 0.00 0.00 0.00 74 1011.4
20260503013003 58 268 8.0 17.0 0.00 0.00 0.00 74 1011.4
20260503012503 58 278 8.0 17.0 0.00 0.00 0.00 73 1011.4
20260503012003 58 294 7.0 14.0 0.00 0.00 0.00 74 1011.4
20260503011503 58 289 8.0 13.0 0.00 0.00 0.00 73 1011.6
20260503011003 58 286 8.0 13.0 0.00 0.00 0.00 72 1011.6
20260503010525 59 284 7.0 13.0 0.00 0.00 0.00 72 1011.5
20260503010003 59 275 8.0 13.0 0.00 0.00 0.00 72 1011.6
20260503005524 59 273 9.0 16.0 0.00 0.00 0.00 72 1011.4
20260503005003 59 290 8.0 16.0 0.00 0.00 0.00 72 1011.6
20260503004503 59 301 7.0 14.0 0.00 0.00 0.00 72 1011.6
20260503004003 59 296 8.0 15.0 0.00 0.00 0.00 72 1011.6
20260503003503 59 291 8.0 15.0 0.00 0.00 0.00 71 1011.6
20260503003024 60 294 8.0 16.0 0.00 0.00 0.00 71 1011.7
20260503002503 60 303 8.0 16.0 0.00 0.00 0.00 70 1011.6
20260503002003 60 301 7.0 13.0 0.00 0.00 0.00 70 1011.6
20260503001503 60 288 7.0 14.0 0.00 0.00 0.00 70 1011.7
20260503001003 60 271 8.0 14.0 0.00 0.00 0.00 71 1011.7
20260503000524 60 264 10.0 16.0 0.00 0.00 0.00 70 1011.6
20260503000003 60 272 10.0 16.0 0.00 0.00 0.00 70 1011.7
20260502235503 60 269 10.0 17.0 0.00 0.00 0.00 69 1011.7
20260502235003 61 262 10.0 17.0 0.00 0.00 0.00 68 1011.7
20260502234503 61 263 9.0 17.0 0.00 0.00 0.00 69 1011.7
20260502234003 61 258 9.0 17.0 0.00 0.00 0.00 68 1011.7
20260502233503 61 258 10.0 21.0 0.00 0.00 0.00 69 1011.8
20260502233003 60 277 9.0 21.0 0.00 0.00 0.00 70 1011.8
20260502232503 61 298 8.0 14.0 0.00 0.00 0.00 70 1011.9
20260502232003 61 288 8.0 15.0 0.00 0.00 0.00 70 1011.9
20260502231524 61 285 8.0 16.0 0.00 0.00 0.00 70 1012.0
20260502231024 61 280 9.0 16.0 0.00 0.00 0.00 70 1012.0
20260502230503 62 269 9.0 16.0 0.00 0.00 0.00 69 1012.1
20260502230003 62 262 9.0 16.0 0.00 0.00 0.00 68 1012.1
20260502225503 62 254 9.0 16.0 0.00 0.00 0.00 67 1012.3
20260502225003 62 260 8.0 15.0 0.00 0.00 0.00 68 1012.3
20260502224503 62 266 8.0 15.0 0.00 0.00 0.00 68 1012.4
20260502224003 62 265 9.0 15.0 0.00 0.00 0.00 68 1012.5
20260502223524 62 261 9.0 17.0 0.00 0.00 0.00 68 1012.5
20260502223003 62 257 9.0 17.0 0.00 0.00 0.00 68 1012.5
20260502222503 61 261 9.0 16.0 0.00 0.00 0.00 70 1012.6
20260502222003 61 269 9.0 17.0 0.00 0.00 0.00 71 1012.7
20260502221503 60 273 9.0 18.0 0.00 0.00 0.00 72 1012.8
20260502221003 60 271 9.0 18.0 0.00 0.00 0.00 72 1012.9
20260502220503 61 267 9.0 18.0 0.00 0.00 0.00 71 1012.9
20260502220003 61 263 9.0 18.0 0.00 0.00 0.00 71 1012.9
20260502215503 61 261 9.0 17.0 0.00 0.00 0.00 71 1013.0
20260502215003 61 264 10.0 17.0 0.00 0.00 0.00 70 1012.9
20260502214503 62 263 9.0 16.0 0.00 0.00 0.00 69 1013.0
20260502214003 62 256 8.0 15.0 0.00 0.00 0.00 70 1013.1
20260502213503 61 259 9.0 17.0 0.00 0.00 0.00 71 1013.1
20260502213024 61 263 10.0 17.0 0.00 0.00 0.00 70 1013.2
20260502212503 60 263 10.0 16.0 0.00 0.00 0.00 71 1013.1
20260502212004 60 260 9.0 14.0 0.00 0.00 0.00 72 1013.2
20260502211503 60 263 8.0 14.0 0.00 0.00 0.00 71 1013.2
20260502211003 60 263 8.0 14.0 0.00 0.00 0.00 72 1013.2
20260502210503 60 261 8.0 14.0 0.00 0.00 0.00 72 1013.3
20260502210004 60 265 8.0 15.0 0.00 0.00 0.00 73 1013.4
20260502205503 60 258 9.0 15.0 0.00 0.00 0.00 73 1013.5
20260502205003 60 254 9.0 15.0 0.00 0.00 0.00 74 1013.6
20260502204503 60 254 8.0 14.0 0.00 0.00 0.00 73 1013.7
20260502204003 60 247 7.0 11.0 0.00 0.00 0.00 73 1013.7
20260502203503 60 247 7.0 13.0 0.00 0.00 0.00 72 1013.7
20260502203024 60 243 7.0 13.0 0.00 0.00 0.00 72 1013.7